Погода в Тобольске

Хотите узнать прогноз погоды в Тобольске? Тогда Вам сюда: Погода в Тобольске

Поиск расширенной информации на нашем сайте:

Полезная информация:

Новости сайта



02.01.2020
Опубликован Долгосрочный прогноз погоды по городам России и ближнего зарубежья на январь 2020 года.
Карты: Прогноз на январь и февраль 2020 года, Сравнение прогнозируемой аномалии приземной температуры воздуха на январь 2020 года по разным моделям.




Погода в Тобольске - сегодня

Время (UTC), дата Ветер
(°,м/с) 
Видим.   Явления Облачность Т
(°С)
Тd
(°С)
f(%) Тe
(°С)
Pmin
(гПа)
dP
(гПа)
Po
(мм)
O2
(г/м3)
Тmin Tmax R s Состояние
почвы
00 16.01.22 150 (ЮВ) 5{10}  4000 м  слаб. ливневой снег  10/10 600 м кучево-дожд. 
[Cb cap]
-10 -12.3 83 -15  991.6  0.9  739  310           
03 16.01.22 140 (ЮВ) 10 км  {ливн. осадки}  10/10 600 м кучево-дожд. 
[Cb cap]
-7.3 -9.3 86 -11  992.6  1.1  740  307  -19.6    0.2  38  равномерный
сухой снег
100% 
06 16.01.22 120 (ЮВ) 20000 м  {ливн. осадки}  10/10 600 м кучево-дожд. 
[Cb cap]
-5.1 -7.4 84 -8  993.5  741  305           
09 16.01.22 130 (ЮВ) 20000 м    10/3 600 м средняя 
[Sc|Ac und]
-2.2 -6 75 -4  993.2  -0.4  740  301           
12 16.01.22 120 (ЮВ) 4000 м  слаб. ливневой снег  10/8 600 м кучево-дожд., средняя 
[Cb cap|Ac und]
-1.6 -2.7 92 -5  990.3  -2.7  738  299           
15 16.01.22 120 (ЮВ) 4000 м  слаб. ливневой снег  10/8 600 м кучево-дожд., средняя 
[Cb cap|Ac und]
-2.5 -3.7 91 -6  985.2  -5.1  734  299    -1.6     
18 16.01.22 140 (ЮВ) 4000 м  слаб. ливневой снег  10/10 600 м кучево-дожд. 
[Cb cap]
-4 -5.1 92 -8  981.3  -4  731  300           
21 16.01.22 180 (Ю) 4000 м  слаб. ливневой снег  10/8 600 м кучево-дожд., средняя 
[Cb cap|Ac und]
-4.1 -5.3 91 -7  979.5  -1.8  730  299           
00 17.01.22 220 (ЮЗ) 6-15{15}  2000 м  слаб. ливневой снег  10/10 600 м кучево-дожд. 
[Cb cap]
-5.3 -7.2 86 -10  981.6  2.1  732  301           
03 17.01.22 240 (ЮЗ) 7-14{17}  4000 м  слаб. ливневой снег  10/10 600 м кучево-дожд. 
[Cb cap]
-9.6 -12.2 81 -15  987.6  5.9  736  308  -9.6    43  равномерный
сухой снег
100% 
06 17.01.22 230 (ЮЗ) 6-12{15}  10 км  слаб. ливневой снег  10/8 600 м кучево-дожд., средняя 
[Cb cap|Ac und]
-11.4 -15.6 71 -17  993  5.2  740  312  -11.4         
09 17.01.22 230 (ЮЗ) 5{12}  20000 м  позёмок{ливн. осадки}  10/3 600 м верхняя 
[Sc|Ci sp]
-13.3 -18.6 64 -19  997.3  4.3  743  316           
12 17.01.22 230 (ЮЗ) 3{10}  10 км    ясно 
-15 -19.6 68 -19  1001.2  3.8  746  320           
15 17.01.22 220 (ЮЗ) 10 км    10/6 600 м средняя 
[Sc|Ac und]
-15.2 -18.9 73 -19  1003.5  2.3  748  321    -9.6     
18 17.01.22 220 (ЮЗ) 10 км    10/5 600 м средняя 
[Sc|Ac und]
-13.2 -16.6 76 -15  1005  1.6  749  318           
21 17.01.22 200 (Ю) 10 км    10/6 600 м средняя 
[Sc|Ac und]
-11.8 -14.9 78 -14  1006.5  1.5  750  317           
00 18.01.22 180 (Ю) 10 км    10/5 600 м средняя 
[Sc|Ac und]
-10.2 -14.2 72 -13  1006.8  0.3  750  315           
03 18.01.22 200 (Ю) 4000 м  слаб. ливневой снег  10/5 600 м кучево-дожд., средняя 
[Cb cap|Ac und]
-9.6 -12.8 77 -13  1007.4  0.6  751  315  -15.6    0.0  48  равномерный
сухой снег
100% 
06 18.01.22 220 (ЮЗ) 20000 м  {ливн. осадки}  10/10 1000 м 
[Sc]
-7.9 -12.1 72 -12  1008.9  1.6  752  313           
09 18.01.22 210 (ЮЗ) 20000 м    8/0 средняя 
[Ac lent]
-6.7 -11.7 68 -9  1010  1.1  753  312           
12 18.01.22 200 (Ю) 10 км    10/0 средняя 
[Ac und]
-7.1 -11.6 70 -10  1011.5  1.4  754  313           
15 18.01.22 220 (ЮЗ) 10 км    10/0 средняя 
[Ac As]
-6.5 -11.5 68 -10  1012.2  0.8  754  312    -6.4  0.2     
18 18.01.22 220 (ЮЗ) 10 км    9/0 средняя 
[Ac As]
-6.2 -11.8 64 -9  1012.8  0.6  755  312           
21 18.01.22 200 (Ю) 10 км    10/0 средняя 
[Ac und]
-8.5 -13.1 69 -11  1014  1.1  756  315           
00 19.01.22 220 (ЮЗ) 10 км    10/0 средняя 
[Ac und]
-8.9 -13.2 71 -12  1014.6  0.6  756  316           
Время (UTC), дата Ветер
(°,м/с) 
Видим.   Явления Облачность Т
(°С)
Тd
(°С)
f(%) Тe
(°С)
Pmin
(гПа)
dP
(гПа)
Po
(мм)
O2
(г/м3)
Тmin Tmax R s Состояние
почвы

Для получения пояснительной информации подведите курсор к названию столбца.

ПОГОДА в Тобольске - архив

Всё, что Вы хотите узнать о погоде в Тобольске - удобно и подробно!

Выберите нужную дату (начиная с 1 января 2019* года) и нажмите кнопку "Найти".
Будут отображены архивные сводки погоды по пункту Тобольск, начиная с указанной даты.


Отображать данные в формате CSV (для использования в таблицах Excel)


Внимание! Наш архив погоды предназначен исключительно для личного некоммерческого использования в познавательных целях. Если Вам необходимы официальные справки о состоянии погоды (для производственных, юридических, коммерческих и т.п. целей), обращайтесь в органы Росгидромета.

*Примечание: данная дата относится к архиву по метеостанциям СССР (Россия, СНГ, Балтия).
Архив по метеостанциям Зарубежной Европы и Азии (кроме Китая) хранится 10 дней, по другим регионам земного шара (Китай, Африка, Америка, Австралия, Океания) - 1 день.

Тобольск - район местоположения метеостанции


Название, широта, долгота, высота метеостанции:
Тобольск 58.2°ш. 68.2°д. 50 м над ур. моря [Российская Федерация]

Дополнительная информация

В oтличие oт бoльшинства пoгoдных сайтoв мы публикуем пoдрoбную метеoинфoрмацию в детальнoм прoфессиoнальнoм фoрмате.

Характеристики температуры и влажнoсти вoздуха измеряются на высoте 2 м в тени вдали oт зданий и деревьев.
Скoрoсть ветра измеряется на высoте 10 м (на урoвне рoста челoвека скoрoсть ветра ниже в 1.5-2 раза). Если метеoстанция нахoдится в гoрoде или в лесу, тo скoрoсть ветра занижена на 2-4 м/с пo сравнению с oткрытым местoм. Скoрoсть ветра над акватoриями крупных рек и oзёр, а также на вершинах хoлмoв на 2-5 м/с выше, чем в oбычных услoвиях.
Атмoсфернoе давление в разных тoчках местнoсти мoжет значительнo oтличаться oт давления на метеoстанции, в зависимoсти oт услoвий рельефа (при пoдъёме на 10 м давление пoнижается примернo на 1 мм рт.ст.).